Dewpoint
15 15 15 14 14 14 14 14 15 15 14 14 14 15 15 14 14 14 13 13 13 13 13 13 13 14 14 15 16 16 15 13 12 12 12 12 12 11 12 14 14 14
13 14 14 14 14 15 14 14 15 15 14 14 14 14 15 15 15 15 14 13 13 13 13 13 13 13 14 14 15 15 15 14 13 13 12 12 12 12 12 13 14 14
10 12 12 13 13 13 14 14 15 15 14 14 14 14 15 15 15 15 14 13 13 13 13 13 14 13 13 14 14 14 14 14 14 14 12 11 11 12 12 13 14 14
7 9 9 10 11 12 13 14 15 15 15 14 14 14 14 14 14 15 14 14 14 13 12 13 13 13 13 13 13 13 14 14 15 14 13 12 12 12 12 13 14 15
6 7 7 8 9 10 13 14 15 15 14 14 14 14 13 13 13 14 14 14 14 14 13 12 12 13 13 13 13 13 13 14 14 13 13 13 13 12 13 14 15 15
7 7 6 6 6 7 10 12 13 14 15 15 15 14 12 12 13 13 14 14 14 14 14 13 12 12 12 12 12 12 13 13 13 13 13 13 13 12 13 14 15 15
8 8 7 7 7 8 8 9 11 12 14 15 15 14 13 12 12 13 14 15 15 15 15 14 12 11 11 11 11 12 12 13 13 13 13 13 13 13 13 13 14 15
9 9 9 8 8 9 9 10 10 10 12 14 14 14 14 13 12 13 14 15 15 16 16 15 14 12 11 11 11 11 11 12 13 13 13 13 13 13 13 13 13 14
10 8 8 8 8 9 9 9 10 10 11 12 13 13 14 14 13 13 14 15 15 16 16 16 15 13 12 11 11 11 11 11 11 12 12 13 13 13 13 13 13 13
11 9 8 7 7 8 8 9 9 9 10 10 11 12 14 15 14 14 15 15 16 16 16 16 16 15 13 11 11 11 11 11 11 11 11 12 12 13 13 13 13 12
13 11 10 10 8 8 9 9 9 9 9 9 10 12 14 15 15 15 15 16 16 16 16 16 15 15 14 13 11 11 11 11 11 11 11 11 11 11 12 13 13 12
14 13 13 13 12 12 12 12 11 10 9 10 11 13 14 15 15 15 16 15 15 15 16 15 15 15 14 14 13 12 11 11 11 12 12 12 12 11 10 11 11 12
15 15 14 14 14 14 14 14 14 12 11 12 13 14 15 15 15 15 16 16 15 16 16 15 15 15 15 14 14 13 13 12 11 11 12 13 13 12 11 10 10 10
16 16 16 16 16 16 16 16 15 15 14 14 15 16 16 16 15 15 15 15 15 15 15 15 15 15 15 15 14 14 13 12 12 11 11 11 12 12 12 11 10 9
18 17 17 17 17 17 16 16 16 16 16 16 16 16 16 16 16 15 15 14 14 14 15 15 15 15 15 15 14 14 13 12 12 11 10 10 9 10 10 10 10 10
18 18 18 17 17 17 16 16 16 16 16 16 16 16 16 16 15 15 15 14 14 14 14 15 15 15 15 14 14 14 13 13 13 12 12 11 11 10 9 8 8 8
17 17 17 17 16 16 16 16 16 16 17 17 17 16 16 16 16 15 14 14 14 14 14 14 14 14 14 14 14 14 13 13 14 13 13 13 13 12 11 10 9 7
16 17 17 17 17 17 17 16 16 17 17 17 17 17 17 17 16 15 14 14 14 14 14 14 14 14 14 15 14 14 14 14 14 14 14 14 14 14 13 12 11 9
17 17 17 17 17 17 17 16 16 16 17 17 17 17 17 17 16 16 14 14 14 14 14 14 14 13 14 14 14 14 14 14 14 14 14 14 14 14 14 14 13 12
16 17 17 17 17 17 17 17 17 16 16 16 17 17 17 17 17 16 15 15 15 15 14 14 14 14 14 14 14 14 13 13 14 14 14 14 14 14 14 14 14 14
16 16 16 16 16 16 16 16 17 16 16 16 17 17 17 17 16 16 15 15 16 16 15 15 15 15 15 14 14 14 13 13 13 13 14 14 14 14 14 14 13 13
15 15 15 15 15 15 15 15 16 16 16 16 17 17 17 17 17 17 16 16 16 16 16 16 15 15 15 15 15 14 14 13 13 13 13 14 14 14 14 14 14 14
14 14 15 15 14 14 14 14 15 15 16 16 16 16 17 17 17 17 17 17 17 17 17 16 16 15 15 15 15 15 15 14 14 14 14 14 15 15 15 15 15 15
10 10 11 13 13 12 12 12 13 14 14 15 15 15 16 16 16 16 17 17 17 17 17 17 16 16 15 15 15 16 16 16 15 15 15 15 15 15 15 15 15 14
3 2 4 6 7 6 7 8 9 11 12 13 14 14 14 15 15 16 16 16 17 17 17 17 17 16 16 15 15 15 15 16 16 16 15 15 15 15 15 15 15 15
-6 -5 -5 -4 -3 -3 -1 2 4 6 9 10 11 11 12 12 13 14 15 15 16 16 16 16 16 16 16 16 16 15 15 16 16 16 16 16 15 15 15 15 15 15
Wind_Speed
23 22 21 20 19 18 16 15 14 13 12 11 10 9 7 6 6 7 8 8 8 8 7 7 8 8 8 8 8 8 8 8 8 7 7 8 8 9 9 9 9 8
24 23 23 23 21 20 18 17 17 16 14 13 11 10 9 8 7 8 8 9 8 8 8 8 7 8 8 8 8 7 7 8 7 7 7 7 8 8 8 10 10 10
24 23 23 22 21 20 18 17 18 18 16 14 13 12 11 10 9 9 9 9 9 8 9 8 7 8 8 7 7 7 7 7 6 6 6 7 8 8 8 10 10 10
23 22 22 21 20 19 18 17 17 17 17 17 16 14 13 11 11 10 9 9 9 9 10 9 8 9 8 7 6 6 7 7 7 7 7 8 8 8 9 10 11 11
22 22 22 21 20 19 19 18 17 16 16 17 17 16 15 13 12 11 10 10 10 10 10 10 10 9 9 8 7 7 7 7 7 8 8 8 8 8 9 10 10 11
22 22 22 21 20 20 20 19 18 17 17 16 16 16 16 15 14 12 11 10 10 10 11 11 11 10 10 10 9 8 7 7 8 8 9 9 9 9 9 10 11 11
22 22 22 22 21 21 21 20 19 18 17 16 15 16 15 16 16 14 12 11 10 10 10 11 11 11 12 11 11 10 9 9 9 8 9 9 10 10 10 11 12 12
22 22 23 23 23 23 22 21 20 19 18 17 16 15 14 16 17 16 14 13 11 10 10 10 11 12 13 13 12 11 10 10 10 9 9 9 10 11 11 11 12 13
22 23 23 23 23 23 23 22 21 21 20 20 18 16 15 15 17 16 15 15 14 13 11 11 12 12 13 14 13 12 11 11 11 11 11 10 10 10 10 11 12 12
22 23 23 23 23 23 22 22 22 21 21 21 20 17 15 15 16 17 16 16 16 15 14 13 13 12 13 13 13 13 12 11 11 12 12 12 11 11 11 12 12 12
21 22 22 22 22 22 22 21 21 21 21 21 20 18 15 15 16 17 17 17 17 17 17 16 15 14 13 13 13 13 13 12 12 11 11 12 13 12 12 13 13 13
21 22 22 21 21 21 21 21 20 20 20 20 20 19 17 16 16 17 18 18 17 17 17 17 16 15 14 14 14 14 14 14 13 12 11 12 13 14 14 14 14 14
22 22 21 21 21 20 20 20 20 20 20 20 20 19 19 18 18 18 19 19 18 17 17 16 16 15 15 15 15 14 14 14 13 13 12 12 13 13 14 15 15 15
23 22 22 21 21 21 20 20 20 21 21 21 22 21 21 20 20 20 20 20 20 19 18 17 16 16 15 15 15 15 15 15 15 14 14 13 13 13 13 14 15 15
22 22 22 21 21 21 20 20 21 21 22 23 24 24 23 22 22 22 22 21 21 20 19 19 18 17 16 15 15 14 14 14 14 14 15 15 15 15 15 15 15 16
20 20 21 22 22 22 21 21 21 21 22 23 24 25 24 24 24 24 24 23 22 21 21 20 20 19 17 16 15 14 14 14 13 14 14 15 16 17 17 17 16 17
17 18 20 21 21 22 22 22 21 20 21 22 23 24 24 25 25 25 25 25 24 23 22 21 21 20 19 18 17 17 17 17 16 16 15 16 16 17 17 17 17 17
14 15 16 16 17 18 19 21 20 19 19 20 22 24 24 24 25 25 26 26 26 25 23 22 21 20 20 20 20 20 20 21 20 19 18 17 17 16 15 14 14 15
12 13 13 11 12 13 15 17 18 18 18 19 21 23 24 24 25 25 25 25 25 25 25 23 22 21 21 21 21 20 21 22 23 22 22 21 19 18 17 15 14 14
9 9 9 9 9 11 12 13 15 16 16 17 18 21 24 25 26 26 26 25 23 23 24 23 22 22 22 22 22 21 21 22 23 23 23 22 22 21 20 19 18 17
7 7 7 8 8 10 11 12 12 14 14 14 15 18 21 23 25 27 27 26 23 22 22 22 22 22 22 23 24 24 24 24 24 24 24 24 23 23 22 21 20 19
9 9 9 8 8 9 10 12 12 13 14 14 15 17 19 21 22 23 25 26 25 23 22 22 22 22 22 22 22 23 25 25 25 25 26 25 24 23 23 22 21 21
8 8 8 8 8 8 8 10 12 12 13 15 16 16 17 18 19 21 23 24 24 24 24 24 23 23 23 22 21 20 22 25 27 27 27 27 26 25 24 24 24 25
5 5 5 6 6 6 6 8 9 10 11 13 14 14 13 14 17 20 22 22 22 22 23 23 24 25 25 26 24 21 20 23 26 29 29 30 29 29 28 28 28 29
4 4 4 4 4 4 4 5 7 8 10 10 10 10 10 10 12 15 18 19 20 20 21 21 23 24 26 27 27 26 24 23 25 29 31 32 32 32 31 32 32 31
4 3 4 4 4 4 4 4 5 6 8 8 8 9 8 8 10 11 13 14 15 17 18 18 19 20 22 24 24 26 27 25 25 28 31 32 32 33 33 34 34 33
Wind_Direction
214 217 221 226 231 236 240 238 234 231 233 236 240 248 252 254 248 236 231 229 226 222 220 220 225 230 232 234 240 243 243 240 236 235 237 240 242 240 232 225 227 230
218 219 222 225 228 233 235 235 235 235 237 241 245 252 257 258 250 237 231 232 229 223 220 223 233 236 232 233 238 238 237 237 235 234 239 244 245 240 231 227 231 236
220 222 223 224 227 231 230 228 231 237 244 248 248 252 256 253 244 236 232 233 231 227 223 222 227 234 236 236 238 240 239 239 238 236 238 240 241 239 231 229 234 239
220 223 225 226 228 229 228 225 227 235 244 249 250 250 250 248 240 234 235 234 228 227 228 224 221 227 234 235 237 244 241 240 243 243 239 234 236 238 233 234 237 237
220 222 224 225 227 227 227 227 228 234 240 244 247 246 244 242 238 233 234 235 228 227 229 229 227 228 232 233 233 238 239 239 243 246 242 235 234 237 237 238 238 234
221 220 222 225 225 225 227 228 230 235 237 238 241 244 241 238 237 232 230 234 235 232 233 235 235 234 234 234 231 230 235 240 243 247 244 236 232 236 238 239 240 237
222 220 221 223 223 225 227 228 231 232 233 235 238 242 241 237 237 234 231 235 237 236 239 239 238 239 240 240 236 231 233 237 242 249 247 239 236 238 239 240 243 242
224 220 220 222 223 225 228 230 233 233 233 235 237 239 240 238 237 237 234 235 234 237 246 247 243 242 242 244 244 238 236 238 241 246 249 248 245 245 244 245 247 249
227 223 221 223 224 226 228 229 232 234 235 236 237 239 241 240 239 239 238 240 241 242 248 255 255 248 243 244 245 242 241 243 244 246 250 251 250 250 251 250 251 256
226 225 224 225 226 227 229 230 231 233 234 236 237 237 238 241 242 242 242 244 248 249 250 255 260 257 249 245 244 244 242 241 243 248 252 254 253 253 254 252 252 255
225 226 226 227 227 228 230 232 232 233 233 234 235 233 233 237 241 242 243 244 247 250 253 256 259 263 261 254 250 247 243 238 238 243 251 255 256 255 254 254 254 256
224 225 225 225 226 228 231 234 236 236 234 233 233 234 235 237 237 238 240 243 246 249 254 258 260 263 265 265 262 257 251 245 240 242 250 256 258 258 257 256 258 261
225 225 226 227 228 229 232 236 237 236 235 234 233 235 238 240 241 240 239 240 243 247 252 258 262 262 264 268 270 267 263 257 251 250 253 258 262 264 264 263 262 264
230 230 230 231 233 233 235 237 237 236 237 238 239 239 241 242 244 244 243 241 241 243 248 254 259 261 262 267 271 271 270 266 264 263 262 263 265 266 268 270 269 269
232 232 231 232 233 234 235 238 239 239 239 241 243 244 244 244 246 247 247 245 243 243 243 246 252 256 258 263 268 271 273 272 272 272 271 272 271 270 271 272 273 273
235 232 231 231 232 232 233 236 241 242 241 242 245 246 246 247 248 248 248 248 247 245 244 243 245 249 253 258 263 267 271 274 275 276 277 277 277 276 275 273 274 274
230 230 230 229 229 231 232 236 240 243 242 242 244 246 247 247 248 248 248 248 247 247 246 245 244 245 249 254 256 260 265 269 272 275 278 280 280 281 280 278 277 275
216 223 225 224 224 227 231 236 239 242 246 247 247 248 248 247 246 246 247 247 247 247 246 246 245 245 249 253 255 256 260 265 268 270 272 274 276 277 279 281 279 277
197 207 213 217 221 224 229 235 239 242 246 249 250 248 246 245 242 241 243 246 249 248 245 245 246 247 250 253 255 256 259 263 266 268 269 269 269 269 269 270 271 272
186 193 200 209 217 221 227 232 236 238 242 246 250 247 244 241 238 236 237 240 245 248 246 244 246 250 254 256 258 260 261 262 263 264 265 266 266 266 265 262 261 262
190 195 202 212 220 226 232 236 238 237 237 242 250 248 242 239 238 237 235 235 238 243 245 245 247 250 254 258 261 263 264 264 262 260 261 263 264 265 266 266 265 265
189 198 204 211 221 232 237 240 245 246 241 240 248 250 244 238 236 238 238 237 238 241 243 243 242 243 246 250 256 261 263 265 264 261 260 261 263 264 265 267 270 272
182 197 207 211 220 233 242 245 249 253 250 247 250 255 252 245 240 240 240 240 240 242 243 242 240 241 242 243 246 252 259 262 262 262 262 261 261 261 261 264 268 272
172 188 206 212 218 229 245 255 258 260 258 253 253 256 257 252 248 246 247 246 244 243 243 243 243 242 243 244 244 246 254 262 262 260 260 260 260 260 261 265 269 272
161 163 172 184 195 205 223 243 252 256 256 254 253 255 256 253 250 251 253 256 257 254 251 251 250 248 247 248 249 249 254 264 267 263 262 262 264 265 267 269 272 274
177 177 176 177 177 179 193 210 223 237 247 250 252 254 254 251 252 254 254 258 263 264 261 259 257 255 254 254 254 254 257 264 269 268 267 268 269 271 272 272 274 275
Height
1592 1593 1594 1595 1596 1597 1598 1599 1600 1601 1602 1602 1603 1604 1604 1605 1605 1605 1606 1606 1606 1607 1607 1608 1609 1609 1610 1610 1611 1611 1611 1612 1612 1613 1614 1614 1615 1615 1616 1616 1617 1617
1591 1592 1593 1595 1596 1597 1598 1599 1600 1601 1601 1602 1603 1603 1604 1604 1605 1605 1605 1606 1606 1607 1607 1607 1608 1609 1609 1610 1610 1610 1611 1611 1612 1612 1613 1613 1614 1614 1615 1616 1616 1616
1589 1591 1592 1593 1595 1596 1598 1599 1599 1600 1601 1602 1602 1603 1603 1604 1604 1605 1605 1605 1606 1606 1607 1607 1607 1608 1609 1609 1610 1610 1610 1611 1611 1612 1612 1613 1613 1614 1614 1615 1615 1616
1587 1589 1590 1592 1594 1595 1597 1598 1599 1599 1600 1601 1601 1602 1602 1603 1604 1604 1605 1605 1605 1606 1606 1606 1607 1607 1608 1608 1609 1609 1609 1610 1610 1611 1611 1612 1612 1613 1614 1614 1614 1615
1586 1588 1589 1591 1592 1594 1595 1596 1597 1598 1599 1599 1600 1601 1601 1602 1603 1603 1603 1604 1604 1605 1605 1606 1606 1606 1607 1607 1608 1609 1609 1609 1610 1610 1611 1611 1611 1612 1613 1613 1613 1614
1585 1586 1587 1588 1589 1591 1592 1593 1594 1596 1597 1598 1599 1600 1600 1601 1601 1602 1602 1603 1603 1604 1604 1605 1605 1605 1606 1606 1607 1608 1608 1608 1609 1609 1610 1610 1611 1611 1612 1612 1612 1613
1583 1584 1585 1586 1587 1588 1589 1590 1592 1594 1595 1597 1598 1599 1599 1600 1600 1601 1601 1602 1602 1603 1603 1604 1604 1604 1605 1605 1606 1607 1607 1608 1608 1608 1609 1609 1610 1610 1611 1611 1612 1612
1582 1582 1583 1585 1586 1587 1588 1589 1591 1592 1594 1595 1596 1597 1598 1599 1599 1600 1601 1601 1601 1602 1603 1603 1604 1604 1604 1604 1605 1606 1606 1607 1607 1608 1608 1609 1609 1610 1610 1611 1611 1611
1580 1581 1582 1583 1584 1586 1587 1588 1589 1590 1592 1593 1594 1596 1597 1598 1598 1599 1600 1600 1601 1601 1602 1602 1603 1603 1603 1604 1604 1605 1605 1605 1606 1607 1607 1608 1609 1609 1610 1610 1610 1610
1577 1578 1580 1581 1583 1584 1585 1586 1588 1589 1590 1591 1592 1594 1595 1596 1597 1598 1598 1599 1599 1600 1601 1601 1602 1602 1602 1603 1603 1604 1604 1604 1605 1606 1606 1607 1608 1608 1609 1609 1609 1610
1575 1577 1578 1579 1581 1582 1583 1585 1586 1587 1589 1590 1591 1592 1593 1594 1595 1596 1597 1598 1598 1599 1599 1600 1601 1601 1601 1601 1602 1603 1603 1603 1604 1604 1605 1606 1606 1607 1608 1608 1608 1609
1574 1575 1576 1578 1579 1581 1582 1583 1585 1586 1587 1588 1589 1590 1591 1593 1594 1594 1595 1596 1597 1597 1598 1598 1599 1600 1600 1600 1601 1601 1602 1602 1603 1603 1604 1604 1605 1605 1606 1607 1607 1607
1572 1573 1575 1576 1578 1579 1581 1582 1583 1584 1585 1586 1588 1588 1590 1591 1592 1593 1594 1594 1595 1596 1597 1597 1598 1598 1599 1599 1600 1600 1601 1601 1601 1602 1602 1602 1603 1604 1604 1605 1605 1606
1571 1572 1574 1575 1577 1578 1579 1580 1581 1582 1583 1585 1586 1586 1588 1589 1590 1591 1592 1592 1593 1594 1595 1596 1596 1597 1597 1598 1598 1599 1599 1599 1600 1600 1600 1601 1601 1602 1603 1603 1603 1604
1569 1571 1572 1574 1575 1576 1578 1579 1579 1580 1581 1583 1584 1585 1586 1587 1588 1589 1590 1590 1591 1592 1592 1594 1594 1595 1596 1596 1597 1597 1598 1598 1598 1599 1599 1599 1600 1600 1601 1601 1602 1602
1569 1570 1571 1572 1573 1574 1576 1576 1577 1579 1580 1581 1582 1583 1584 1585 1586 1586 1587 1588 1589 1589 1590 1591 1592 1593 1594 1595 1596 1596 1596 1597 1597 1597 1598 1598 1598 1598 1599 1599 1600 1600
1568 1570 1570 1570 1571 1572 1573 1574 1575 1576 1577 1579 1580 1581 1582 1582 1583 1584 1585 1586 1586 1587 1588 1588 1589 1590 1592 1593 1594 1594 1595 1595 1595 1596 1596 1596 1596 1596 1596 1597 1597 1597
1566 1569 1569 1568 1569 1570 1571 1572 1572 1573 1575 1576 1577 1578 1579 1580 1580 1581 1582 1583 1584 1585 1586 1586 1587 1588 1589 1591 1592 1592 1593 1593 1593 1594 1594 1594 1594 1594 1594 1594 1594 1595
1565 1567 1567 1567 1567 1568 1569 1570 1570 1571 1572 1573 1574 1575 1576 1577 1578 1578 1579 1580 1581 1582 1583 1584 1585 1586 1587 1589 1589 1590 1591 1591 1591 1592 1592 1592 1592 1592 1592 1592 1592 1592
1564 1565 1566 1566 1567 1567 1568 1568 1569 1569 1569 1570 1572 1573 1574 1574 1575 1576 1577 1578 1578 1579 1580 1581 1583 1584 1585 1586 1587 1588 1589 1589 1589 1589 1590 1590 1590 1590 1590 1590 1590 1590
1562 1563 1564 1565 1566 1566 1566 1567 1567 1567 1566 1567 1570 1571 1572 1572 1573 1573 1574 1575 1576 1576 1577 1578 1579 1580 1582 1583 1585 1586 1587 1587 1587 1587 1587 1587 1587 1588 1588 1588 1588 1588
1561 1562 1563 1563 1564 1564 1565 1565 1565 1565 1565 1565 1568 1570 1570 1571 1572 1572 1573 1573 1574 1574 1575 1576 1577 1577 1578 1579 1581 1583 1584 1585 1585 1585 1585 1585 1585 1585 1586 1586 1586 1586
1561 1561 1562 1562 1563 1563 1564 1564 1564 1564 1563 1564 1566 1568 1568 1569 1571 1572 1572 1572 1572 1571 1572 1573 1574 1575 1575 1576 1578 1580 1581 1582 1583 1583 1583 1583 1583 1583 1583 1583 1584 1584
1561 1561 1561 1562 1563 1563 1564 1564 1564 1564 1563 1563 1565 1567 1567 1568 1569 1569 1570 1569 1569 1568 1568 1569 1571 1572 1573 1574 1575 1576 1578 1580 1581 1581 1580 1580 1580 1580 1580 1580 1580 1581
1560 1561 1561 1562 1562 1563 1563 1564 1564 1563 1563 1564 1565 1565 1565 1566 1566 1567 1568 1567 1566 1565 1566 1567 1568 1569 1570 1572 1572 1573 1574 1577 1579 1579 1578 1578 1577 1577 1577 1577 1577 1577
1560 1561 1561 1562 1562 1563 1563 1563 1563 1563 1563 1563 1563 1563 1563 1564 1564 1564 1565 1565 1564 1564 1564 1565 1565 1566 1567 1569 1570 1570 1571 1573 1576 1577 1575 1575 1574 1573 1573 1573 1573 1573